STARLINK-1799, 46699

Orbit data source: Space-Track

STARLINK-1799, 46699 is a payload satellite owned by SpaceX/Seattle (US) in LEO that was launched on Sun, 18 Oct 2020 UTC via an FALCON 9 launch vehicle from the Air Force Eastern Test Range (AFETR). Payloads include a variety of satellites, spacecraft, and rockets equipped with specific instruments for various scientific and technological missions. These include communications satellites like Starlink; space stations such as the ISS; scientific satellites like the Hubble; Earth observation satellites from companies like Planet Labs, Umbra, and HawkEye 360; GPS; miniature CubeSats for education and research; and military/defense satellites.

Loading next visibility...
STARLINK-1799 details
Identifier
46699, 2020-073AF
Orbit
LEO
Last TLE update1 day ago
Origin
Flag of USSpaceX/Seattle (US)
ManufacturerSpaceX/Seattle
MissionOperational Commercial Communications
Bus & MotorSTARLINK, Unknown motor
Mass260 kg wet, ~248 kg dry
Launch date (UTC)
2020-10-18 (4 years ago)
Launch vehicle
FALCON 9
Launch site
Air Force Eastern Test Range (AFETR)
Object type
Payload
Rocket body
Debris
Shape & HBRBox + 1 Pan, 8.86 m
Radar Cross Section13.562 m², Large (>1 m²)

Expand to show TLE details & history

TLE from 1 day ago
0 STARLINK-1799
1 46699U 20073AF  24360.44097303  .00001282  00000-0  10500-3 0  9993
2 46699  53.0558  53.4819 0001453  90.5612 269.5544 15.06389119230922
Epoch: 2024-12-25T10:35Z
Definitive object data (Epoch: 2024-12-25T10:35:00.069Z)
Latitude
Longitude160.29693°
Altitude548.132 km
Speed7.589 km/s
True Right ascension03h 33m 55s
True Declination0° 00' 00"
Sunlit
Object was in full shadow at TLE epoch
Visualization TLE readout
Latitude14.20043°
Longitude-35.21517°
Altitude547.01 km
Speed7.591 km/s
Apparent Right ascension17h 31m 21s
Apparent Declination-21° 38' 15"
Sunlit
Object is in daylight
Visualization observer readout
Local Sidereal Time10:32:23
Azimuth98.294° ESE
Elevation-24.71°
Doppler factor1
Orbital elements
Apogee altitude548.522 km
Perigee altitude546.509 km
Semi-major axis6,925.652 km
Eccentricity0.0001453
Inclination53.0558°
RAAN53.4819°
Arg. of periapsis90.5612°
True anomaly269.53775°
Mean anomaly269.5544°
Eccentric anomaly269.54608°
Mean motion3.76576 °/min
BSTAR0.000105
Orbital period95.6 mins
Loading maneuver chart data...
Loading historical data...
Loading historical data...
Loading historical data...
Loading historical data...
Loading historical data...
Loading historical data...
Loading historical data...

STARLINK-1799 Visibility forecast

Observer location: undefined°, undefined

Span
Click to sort rows by Start time (UTC) header in descending order
Start Az.
Max El. time (UTC)
Max El. Az.
Max El.
End time (UTC)
End Az.
7 mins2024-12-26 12:32:05.543Z322.695° NNW2024-12-26 12:35:05.543Z15.046° NNE33.616°2024-12-26 12:39:05.543Z104.401° ESE
5 mins2024-12-26 14:13:05.543Z269.685° W2024-12-26 14:15:05.543Z223.835° SW24.635°2024-12-26 14:18:05.543Z173.031° S
6 mins2024-12-27 05:45:05.543Z207.559° SW2024-12-27 05:48:05.543Z114.631° SE38.623°2024-12-27 05:51:05.543Z60.323° ENE
5 mins2024-12-27 07:25:05.543Z284.592° WNW2024-12-27 07:27:05.543Z322.878° NNW24.305°2024-12-27 07:30:05.543Z24.559° NE
|